Accueil
METAR-TAF:

METAR-TAF

Aéroports :

Saint-Brieuc, France

Aéroport de Saint-Brieuc Armor

latitude: 48-32N, longitude: 002-51W, altitude: 138 m

Observation

Le bulletin a été fait il y a 2 heures et 36 minutes, à 22:00 UTC
Vent 18 kt de nord-ouest
Température 7°C
Humidité 87%
Pression 1003 hPa
Visibilité 10 km ou plus
Nuages épars à une hauteur de 1900 ft
Nuages épars à une hauteur de 2600 ft
Ciel couvert à une hauteur de 7000 ft

METAR: LFRT 132200Z AUTO 31018KT 9999 SCT019 SCT026 OVC070 07/05 Q1003

Heure: 01:36 (00:36 UTC)


TAF: absent

Observations et prévisions météorologiques de plus de 4000 aéroports (messages METAR et TAF).

Les stations disponibles sont représentées par des disques jaunes et rouges sur la carte.

Passer la souris dessus pour voir le nom de la station.

Cliquer dessus pour voir les observations et prévisions météorologiques.

Pour changer de carte: cliquez sur les boutons verts avec une croix noire pour zoomer, sur le bouton vert avec un tiret pour effectuer un zoom arrière, ou sur les flèches vertes pour les cartes adjacentes.


METAR-TAF: